| time (UTC) | temp C | wind direction | speed KPH | gust KPH | rain 1hr cm | rain 24hr cm | rain mn cm | humidity % | barometer mb |
| 20260906103042 | 20 | 118 | 1.6 | 4.8 | 0.00 | 0.00 | 0.00 | 57 | 1012.2 |
| 20260906101541 | 20 | 118 | 0.0 | 9.7 | 0.00 | 0.00 | 0.00 | 57 | 1012.4 |
| 20260906100040 | 20 | 133 | 4.8 | 11.3 | 0.00 | 0.00 | 0.00 | 57 | 1012.4 |
| 20260906094539 | 20 | 134 | 4.8 | 9.7 | 0.00 | 0.00 | 0.00 | 57 | 1012.2 |
| 20260906093038 | 20 | 118 | 1.6 | 6.4 | 0.00 | 0.00 | 0.00 | 56 | 1011.9 |
| 20260906091536 | 19 | 119 | 1.6 | 4.8 | 0.00 | 0.00 | 0.00 | 55 | 1011.4 |
| 20260906090034 | 20 | 100 | 6.4 | 9.7 | 0.00 | 0.00 | 0.00 | 55 | 1011.4 |
| 20260906084533 | 20 | 71 | 8.0 | 11.3 | 0.00 | 0.00 | 0.00 | 54 | 1011.3 |
| 20260906083030 | 20 | 360 | 6.4 | 9.7 | 0.00 | 0.00 | 0.00 | 54 | 1011.2 |
| 20260906081541 | 20 | 98 | 6.4 | 12.9 | 0.00 | 0.00 | 0.00 | 54 | 1011.2 |
| 20260906080031 | 20 | 101 | 9.7 | 14.5 | 0.00 | 0.00 | 0.00 | 53 | 1011.1 |
| 20260906074527 | 20 | 84 | 9.7 | 14.5 | 0.00 | 0.00 | 0.00 | 52 | 1011.3 |
| 20260906073022 | 21 | 360 | 8.0 | 12.9 | 0.00 | 0.00 | 0.00 | 51 | 1011.3 |
| 20260906071520 | 21 | 98 | 6.4 | 11.3 | 0.00 | 0.00 | 0.00 | 50 | 1011.5 |
| 20260906070019 | 21 | 80 | 9.7 | 12.9 | 0.00 | 0.00 | 0.00 | 50 | 1011.6 |
| 20260906064518 | 21 | 79 | 9.7 | 14.5 | 0.00 | 0.00 | 0.00 | 50 | 1011.7 |
| 20260906063017 | 21 | 360 | 9.7 | 16.1 | 0.00 | 0.00 | 0.00 | 50 | 1011.7 |
| 20260906061514 | 21 | 360 | 11.3 | 16.1 | 0.00 | 0.00 | 0.00 | 49 | 1011.6 |
| 20260906060021 | 21 | 360 | 9.7 | 14.5 | 0.00 | 0.00 | 0.00 | 49 | 1011.6 |
| 20260906054511 | 21 | 70 | 8.0 | 11.3 | 0.00 | 0.00 | 0.00 | 48 | 1011.8 |
| 20260906053019 | 21 | 80 | 8.0 | 11.3 | 0.00 | 0.00 | 0.00 | 48 | 1011.5 |
| 20260906051507 | 21 | 105 | 1.6 | 6.4 | 0.00 | 0.00 | 0.00 | 46 | 1011.4 |
| 20260906050016 | 22 | 103 | 6.4 | 9.7 | 0.00 | 0.00 | 0.00 | 46 | 1011.4 |
| 20260906044503 | 22 | 80 | 8.0 | 11.3 | 0.00 | 0.00 | 0.00 | 46 | 1011.5 |
| 20260906043003 | 22 | 84 | 6.4 | 11.3 | 0.00 | 0.00 | 0.00 | 46 | 1011.4 |
| 20260906041502 | 22 | 360 | 8.0 | 11.3 | 0.00 | 0.00 | 0.00 | 46 | 1011.4 |
| 20260906040002 | 22 | 74 | 6.4 | 11.3 | 0.00 | 0.00 | 0.00 | 46 | 1011.3 |
| 20260906034502 | 22 | 360 | 6.4 | 12.9 | 0.00 | 0.00 | 0.00 | 46 | 1011.2 |
| 20260906033100 | 23 | 360 | 8.0 | 14.5 | 0.00 | 0.00 | 0.00 | 46 | 1011.3 |
| 20260906031604 | 23 | 65 | 6.4 | 12.9 | 0.00 | 0.00 | 0.00 | 46 | 1011.3 |
| 20260906030058 | 23 | 88 | 6.4 | 11.3 | 0.00 | 0.00 | 0.00 | 46 | 1011.1 |
| 20260906024555 | 23 | 360 | 6.4 | 11.3 | 0.00 | 0.00 | 0.00 | 46 | 1010.9 |
| 20260906023055 | 23 | 84 | 6.4 | 11.3 | 0.00 | 0.00 | 0.00 | 47 | 1010.7 |
| 20260906021554 | 23 | 89 | 8.0 | 12.9 | 0.00 | 0.00 | 0.00 | 47 | 1010.5 |
| 20260906020101 | 23 | 83 | 8.0 | 11.3 | 0.00 | 0.00 | 0.00 | 47 | 1010.4 |
| 20260906014553 | 23 | 96 | 4.8 | 11.3 | 0.00 | 0.00 | 0.00 | 47 | 1010.2 |
| 20260906013052 | 23 | 95 | 3.2 | 11.3 | 0.00 | 0.00 | 0.00 | 48 | 1010.0 |
| 20260906011552 | 24 | 360 | 6.4 | 11.3 | 0.00 | 0.00 | 0.00 | 50 | 1010.0 |
| 20260906010051 | 24 | 360 | 8.0 | 11.3 | 0.00 | 0.00 | 0.00 | 51 | 1010.0 |
| 20260906004551 | 25 | 80 | 6.4 | 12.9 | 0.00 | 0.00 | 0.00 | 52 | 1009.7 |
| 20260906003050 | 25 | 360 | 9.7 | 16.1 | 0.00 | 0.00 | 0.00 | 52 | 1009.6 |
| 20260906001549 | 26 | 74 | 8.0 | 14.5 | 0.00 | 0.00 | 0.00 | 52 | 1009.7 |
| 20260906000049 | 26 | 360 | 9.7 | 16.1 | 0.00 | 0.00 | 0.00 | 53 | 1009.6 |
| 20260905234548 | 26 | 76 | 8.0 | 16.1 | 0.00 | 0.00 | 0.00 | 53 | 1009.8 |
| 20260905233049 | 27 | 87 | 9.7 | 14.5 | 0.00 | 0.00 | 0.00 | 53 | 1009.6 |
| 20260905231548 | 27 | 360 | 9.7 | 16.1 | 0.00 | 0.00 | 0.00 | 53 | 1009.6 |
| 20260905230052 | 28 | 87 | 9.7 | 14.5 | 0.00 | 0.00 | 0.00 | 52 | 1009.6 |
| 20260905224601 | 28 | 360 | 11.3 | 17.7 | 0.00 | 0.00 | 0.00 | 51 | 1009.2 |
| 20260905223047 | 29 | 62 | 12.9 | 22.5 | 0.00 | 0.00 | 0.00 | 50 | 1008.9 |
| 20260905221556 | 29 | 360 | 14.5 | 22.5 | 0.00 | 0.00 | 0.00 | 50 | 1008.7 |
| 20260905220050 | 29 | 360 | 16.1 | 22.5 | 0.00 | 0.00 | 0.00 | 49 | 1008.7 |
| 20260905214545 | 30 | 84 | 14.5 | 24.1 | 0.00 | 0.00 | 0.00 | 49 | 1008.6 |
| 20260905213043 | 30 | 62 | 11.3 | 22.5 | 0.00 | 0.00 | 0.00 | 48 | 1008.5 |
| 20260905211544 | 30 | 62 | 12.9 | 19.3 | 0.00 | 0.00 | 0.00 | 47 | 1008.7 |
| 20260905210043 | 30 | 73 | 12.9 | 24.1 | 0.00 | 0.00 | 0.00 | 47 | 1009.0 |
| 20260905204542 | 31 | 84 | 8.0 | 12.9 | 0.00 | 0.00 | 0.00 | 46 | 1009.2 |
| 20260905203056 | 31 | 145 | 4.8 | 14.5 | 0.00 | 0.00 | 0.00 | 46 | 1009.2 |
| 20260905201544 | 31 | 113 | 1.6 | 12.9 | 0.00 | 0.00 | 0.00 | 47 | 1009.5 |
| 20260905200051 | 30 | 85 | 8.0 | 14.5 | 0.00 | 0.00 | 0.00 | 48 | 1009.8 |
| 20260905194539 | 30 | 112 | 8.0 | 16.1 | 0.00 | 0.00 | 0.00 | 48 | 1009.8 |
| 20260905193038 | 31 | 298 | 6.4 | 12.9 | 0.00 | 0.00 | 0.00 | 48 | 1010.1 |
| 20260905191538 | 32 | 100 | 4.8 | 11.3 | 0.00 | 0.00 | 0.00 | 45 | 1010.0 |
| 20260905190034 | 31 | 140 | 4.8 | 9.7 | 0.00 | 0.00 | 0.00 | 46 | 1010.3 |
| 20260905184534 | 31 | 98 | 4.8 | 16.1 | 0.00 | 0.00 | 0.00 | 46 | 1010.5 |
| 20260905183032 | 30 | 277 | 1.6 | 9.7 | 0.00 | 0.00 | 0.00 | 47 | 1010.5 |
| 20260905181529 | 30 | 80 | 3.2 | 11.3 | 0.00 | 0.00 | 0.00 | 47 | 1010.7 |
| 20260905180028 | 30 | 94 | 1.6 | 9.7 | 0.00 | 0.00 | 0.00 | 46 | 1010.7 |
| 20260905174534 | 30 | 103 | 3.2 | 9.7 | 0.00 | 0.00 | 0.00 | 47 | 1010.6 |
| 20260905173027 | 29 | 95 | 6.4 | 17.7 | 0.00 | 0.00 | 0.00 | 48 | 1010.6 |
| 20260905171535 | 29 | 96 | 8.0 | 17.7 | 0.00 | 0.00 | 0.00 | 47 | 1010.4 |
| 20260905170019 | 29 | 111 | 4.8 | 11.3 | 0.00 | 0.00 | 0.00 | 47 | 1010.5 |
| 20260905164514 | 29 | 90 | 6.4 | 14.5 | 0.00 | 0.00 | 0.00 | 47 | 1010.5 |
| 20260905163010 | 28 | 91 | 3.2 | 14.5 | 0.00 | 0.00 | 0.00 | 47 | 1010.7 |
| 20260905161506 | 28 | 115 | 8.0 | 16.1 | 0.00 | 0.00 | 0.00 | 47 | 1010.8 |
| 20260905160002 | 28 | 91 | 8.0 | 14.5 | 0.00 | 0.00 | 0.00 | 46 | 1010.4 |
| 20260905154602 | 28 | 70 | 6.4 | 14.5 | 0.00 | 0.00 | 0.00 | 47 | 1010.4 |
| 20260905153054 | 28 | 114 | 3.2 | 11.3 | 0.00 | 0.00 | 0.00 | 46 | 1010.4 |
| 20260905151556 | 28 | 101 | 6.4 | 9.7 | 0.00 | 0.00 | 0.00 | 45 | 1010.1 |
| 20260905150046 | 27 | 88 | 1.6 | 9.7 | 0.00 | 0.00 | 0.00 | 45 | 1009.9 |
| 20260905144542 | 27 | 335 | 3.2 | 8.0 | 0.00 | 0.00 | 0.00 | 44 | 1009.9 |
| 20260905143038 | 26 | 96 | 3.2 | 9.7 | 0.00 | 0.00 | 0.00 | 43 | 1009.7 |
| 20260905141541 | 26 | 93 | 0.0 | 8.0 | 0.00 | 0.00 | 0.00 | 42 | 1009.8 |
| 20260905140036 | 25 | 137 | 0.0 | 6.4 | 0.00 | 0.00 | 0.00 | 42 | 1009.9 |
| 20260905134535 | 25 | 340 | 0.0 | 1.6 | 0.00 | 0.00 | 0.00 | 45 | 1009.6 |
| 20260905133028 | 23 | 360 | 0.0 | 6.4 | 0.00 | 0.00 | 0.00 | 51 | 1009.4 |
| 20260905131527 | 23 | 360 | 0.0 | 0.0 | 0.00 | 0.00 | 0.00 | 53 | 1009.2 |
| 20260905130026 | 22 | 360 | 0.0 | 0.0 | 0.00 | 0.00 | 0.00 | 54 | 1009.1 |
| 20260905124533 | 22 | 360 | 0.0 | 0.0 | 0.00 | 0.00 | 0.00 | 54 | 1008.8 |
| 20260905123021 | 22 | 360 | 0.0 | 0.0 | 0.00 | 0.00 | 0.00 | 54 | 1008.7 |
| 20260905121520 | 22 | 360 | 0.0 | 0.0 | 0.00 | 0.00 | 0.00 | 54 | 1008.6 |
| 20260905120019 | 21 | 360 | 0.0 | 0.0 | 0.00 | 0.00 | 0.00 | 53 | 1008.5 |
| 20260905114518 | 22 | 76 | 0.0 | 0.0 | 0.00 | 0.00 | 0.00 | 53 | 1007.9 |
| 20260905113017 | 21 | 76 | 0.0 | 0.0 | 0.00 | 0.00 | 0.00 | 51 | 1007.8 |
| 20260905111514 | 22 | 76 | 0.0 | 0.0 | 0.00 | 0.00 | 0.00 | 51 | 1007.7 |
| 20260905110013 | 22 | 76 | 0.0 | 0.0 | 0.00 | 0.00 | 0.00 | 50 | 1008.2 |
| 20260905104511 | 22 | 76 | 0.0 | 0.0 | 0.00 | 0.00 | 0.00 | 50 | 1008.1 |